User: anonymous   Login
Location: Montr�al
(45.5000°N, 73.5830°W)
Time: 19:52:37
(UTC-05:00)
Language:

Cosmos 2369 - Orbit

View from above orbital plane
View from above orbital plane
View from above satellite
View from above satellite

Ground track
Ground track

The orbit data is extracted from the following two-line orbital elements,

1 26069U 00006A   17057.88417223 -.00000134 +00000-0 -46207-4 0  9997
2 26069 070.9901 230.1354 0009542 030.8551 329.3129 14.13333497143882
Epoch (UTC): 26 February 2017 21:13:12
Eccentricity: 0.0009542
inclination: 70.9901°
perigee height: 841 km
apogee height: 855 km
right ascension of ascending node: 230.1354°
argument of perigee: 30.8551°
revolutions per day: 14.13333497
mean anomaly at epoch: 329.3129°
orbit number at epoch: 14388

The dashed part of the orbit path shows where the satellite is in the earth's shadow,  

DLR